Regional Weather Roundup
Issued by NWS San Angelo, TX

Home | Current Version | Previous Version | Text Only | Print | Product List | Glossary On
Versions: 1 2 3 4 5 6 7 8 9 10 11 12 13 14 15 16 17 18 19 20 21 22 23 24 25 26 27 28 29 30 31 32 33 34 35 36 37 38 39 40 41 42 43 44 45 46 47 48 49 50
000
ASUS44 KSJT 301102
RWRSJT
WEST CENTRAL TEXAS REGIONAL WEATHER ROUNDUP
NATIONAL WEATHER SERVICE SAN ANGELO TX
600 AM CDT THU MAR 30 2017

NOTE: "FAIR" INDICATES FEW OR NO CLOUDS BELOW 12,000 FEET WITH NO
SIGNIFICANT WEATHER AND/OR OBSTRUCTIONS TO VISIBILITY.

TXZ049-054-064>066-071>073-076>078-098-099-113-114-127-128-139-140-
154-155-168>170-301200
...LOCATIONS ACROSS WEST CENTRAL TEXAS...

CITY           SKY/WX    TMP DP  RH WIND       PRES   REMARKS
SAN ANGELO     CLEAR     43  37  79 SW5       29.96F
ABILENE        CLEAR     45  42  89 W6        29.91F
DYESS AFB      CLEAR     46  43  87 W6        29.90S
JUNCTION       CLEAR     46  42  86 W6        29.98F
SWEETWATER     CLEAR     46  42  86 SW10      29.95S
BROWNWOOD      NOT AVBL
COLEMAN        CLOUDY    46  42  86 W7        29.94R
SONORA         CLOUDY    43  39  87 CALM      30.04F
OZONA          FAIR      41  37  87 CALM      30.03F
BRADY          NOT AVBL
$$

TEXAS PANHANDLE/OKLAHOMA PANHANDLE

CITY           SKY/WX    TMP DP  RH WIND       PRES   REMARKS
AMARILLO       CLEAR     38  36  92 W8        29.87F WCI  32
BORGER         CLEAR     41  36  82 SW7       29.86F WCI  36
CANADIAN       CLEAR     44  38  81 W9        29.83F WCI  39
DALHART        CLEAR     37  34  89 W9        29.86F WCI  30
DUMAS          SUNNY     38  33  85 W10       29.86F WCI  30
GUYMON         NOT AVBL
HEREFORD       SUNNY     38  36  92 W6        29.89F WCI  34
PAMPA          SUNNY     40  37  87 N9        29.85F WCI  34
PERRYTON       CLEAR     40  37  89 W8        29.82F WCI  34
$$

SOUTHERN PANHANDLE/SOUTH PLAINS/ROLLING PLAINS

CITY           SKY/WX    TMP DP  RH WIND       PRES   REMARKS
LUBBOCK        CLEAR     40  37  89 W10       29.89F WCI  33
SNYDER         CLEAR     41  38  89 SW9       29.94S WCI  36
CHILDRESS      CLEAR     45  39  79 NW9       29.86F
SEMINOLE       SUNNY     37  33  83 W7        29.97S WCI  32
$$

PERMIAN BASIN

CITY           SKY/WX    TMP DP  RH WIND       PRES   REMARKS
MIDLAND        CLEAR     43  36  76 SW5       29.97F
ODESSA           N/A     43  34  70 SW5       29.98F
WINK           CLEAR     38  32  79 CALM      29.97F
$$

FAR WEST/SOUTHWEST MOUNTAINS/TRANS PECOS

CITY           SKY/WX    TMP DP  RH WIND       PRES   REMARKS
ALPINE         SUNNY     40  28  64 SW7       30.11S WCI  35
DRYDEN           N/A     52  35  52 W9        30.00F
EL PASO        CLEAR     46  30  53 SE6       30.02F
FORT STOCKTON  CLEAR     47  34  60 SW10      30.01F
GUADALUPE PASS CLEAR     40  31  70 SW15      30.05F WCI  32
MARFA          CLEAR     28  23  81 N3        30.09S
PECOS          SUNNY     37  28  72 CALM      30.00S
$$

DALLAS/FORT WORTH METROPLEX

CITY           SKY/WX    TMP DP  RH WIND       PRES   REMARKS
DFW AIRPORT    PTCLDY    54  44  69 W13       29.83R
FTW MEACHAM    CLEAR     52  43  71 W7        29.85S
DAL-EXECUTIVE  PTCLDY    51  44  77 W6        29.84R
GRAND PRAIRIE  PTCLDY    54  42  66 W6        29.87S
ADDISON        CLEAR     54  43  66 W10G21    29.85F
MESQUITE       SUNNY     53  41  65 W7        29.85R
LANCASTER      MOSUNNY   51  44  77 W7        29.87R
$$

NORTH CENTRAL TEXAS

CITY           SKY/WX    TMP DP  RH WIND       PRES   REMARKS
SHRMAN/DENISON SUNNY     49  43  79 W10       29.81S
GAINESVILLE    MOCLDY    49  41  72 NW9       29.84S
BRIDGEPORT     MOSUNNY   50  43  77 W6        29.87F
DENTON         CLEAR     49  43  80 W10       29.83S
WAXAHACHIE     MOSUNNY   51  46  82 W9        29.87F
GRANBURY       SUNNY     51  45  79 SW6       29.89S
$$

WESTERN NORTH TEXAS

CITY           SKY/WX    TMP DP  RH WIND       PRES   REMARKS
WICHITA FALLS  PTCLDY    46  42  86 W9        29.83S
VERNON         CLOUDY    48  40  72 W8        29.85F
BRECKENRIDGE   MOSUNNY   47  43  85 W8        29.89F
COMANCHE       CLEAR     48  44  84 W9        29.92S
$$

CENTRAL AND SOUTH CENTRAL TEXAS

CITY           SKY/WX    TMP DP  RH WIND       PRES   REMARKS
AUSTIN/BERGSTM PTCLDY    55  48  77 NW5       29.93S
WACO           CLEAR     51  47  86 W9        29.88F
HILLSBORO      SUNNY     50  47  90 W5        29.88F
TEMPLE         NOT AVBL
KILLEEN-GRAY   CLEAR     51  46  83 W12       29.91S
FORT HOOD      CLEAR     52  46  81 W12       29.88S
GEORGETOWN     CLEAR     52  45  76 W7        29.92S
LAGO VISTA     FAIR      52  47  85 W7        29.93F
SAN MARCOS     PTCLDY    52  45  76 NW6       29.94S
NEW BRAUNFELS  CLEAR     54  46  74 N9        29.92S
RANDOLPH AFB   CLEAR     53  46  78 NW3       29.93F
SAN ANTONIO    CLEAR     53  44  71 NW9       29.94F
STINSON        PTCLDY    57  44  62 NW3       29.93S
PLEASANTON     NOT AVBL
LA GRANGE      CLOUDY    57  52  83 NW5       29.90S
GIDDINGS       MOSUNNY   55  49  80 CALM      29.92S
$$

EAST TEXAS

CITY           SKY/WX    TMP DP  RH WIND       PRES   REMARKS
PARIS          CLEAR     46  41  81 SW6       29.80S
CLARKSVILLE    NOT AVBL
TYLER          CLEAR     53  47  79 W5        29.85R
LONGVIEW       CLEAR     53  48  83 W6        29.83R
PALESTINE      SUNNY     53  49  85 W8G16     29.88R
NACOGDOCHES    CLOUDY    54  48  82 NW7       29.84S
$$

TEXAS HILL COUNTRY AND EDWARDS PLATEAU

CITY           SKY/WX    TMP DP  RH WIND       PRES   REMARKS
LLANO          NOT AVBL
HORSESHOE BAY  FAIR      50  46  84 CALM      29.95S
KERRVILLE      CLEAR     50  45  83 NW8       29.96S
FREDERICKSBRG  NOT AVBL
ROCKSPRINGS    NOT AVBL
HONDO          PTCLDY    49  43  80 W5        29.96S
UVALDE         SUNNY     46  43  90 CALM      29.97F
DEL RIO        CLEAR     53  45  74 N5        29.98F
$$

SOUTHEAST TEXAS

CITY           SKY/WX    TMP DP  RH WIND       PRES   REMARKS
COLLEGE STN    MOCLDY    56  50  80 W7        29.90S
CALDWELL       NOT AVBL
CROCKETT       NOT AVBL
BRENHAM        PTCLDY    58  52  81 NW6       29.90S
HUNTSVILLE     CLOUDY    58  49  72 NW8       29.88R
CONROE         CLOUDY    59  51  75 NW13      29.87R
HOUSTON BUSH   MOCLDY    63  53  70 NW17G24   29.84F
HOUSTON HOBBY  CLOUDY    64  53  67 NW13      29.82F
PERLAND        CLOUDY    66  53  63 NW12G18   29.82F
WHARTON        PTSUNNY   62  50  66 NW13      29.87S
$$

THE UPPER TEXAS COAST

CITY           SKY/WX    TMP DP  RH WIND       PRES   REMARKS
ORANGE         PTSUNNY   66  66 100 NW9       29.81R
PORT ARTHUR    PTCLDY    63  58  83 NW14G22   29.79R
GALVESTON      PTCLDY    66  58  75 NW18      29.80F
ANGLETON       CLOUDY    64  54  69 N12       29.81F
BAY CITY       MOSUNNY   64  55  72 NW9       29.85R
$$

TEXAS COASTAL BEND, RIO GRANDE PLAINS DEEP SOUTH TEXAS

CITY           SKY/WX    TMP DP  RH WIND       PRES   REMARKS
VICTORIA       CLOUDY    60  50  69 NW12      29.89S
BEEVILLE       FAIR      62  48  60 NW12G20   29.91S
ROCKPORT       PTCLDY    65  50  58 NW21      29.88R
PORT ARANSAS   MOSUNNY   65  52  61 N16G24    29.88R
PORT LAVACA    PTSUNNY   61  55  80 CALM      29.87S
CORPUS CHRISTI MOCLDY    64  50  60 N15       29.89R
KINGSVILLE NAS PTCLDY    61  52  72 NW10      29.90R
COTULLA        PTCLDY    56  43  61 CALM      29.97F
LAREDO         CLOUDY    62  42  47 N14       29.97S
BROWNSVILLE    PTCLDY    73  71  93 NW7       29.82S
PORT ISABEL    MOCLDY    72  71  97 NW18G25   29.82R FOG
HEBBRONVILLE   CLOUDY    62  42  48 N16G24    29.92S
MCALLEN        CLEAR     71  47  42 N15G23    29.89R
WESLACO        CLOUDY    66  50  57 N10G18    29.86R
FALFURRIAS     MOSUNNY   63  48  58 N6        29.90F
EDINBURG       SUNNY     67  48  50 NW9       29.89R
$$



USA.gov is the U.S. government's official web portal to all federal, state and local government web resources and services.